Location: Vihti�l�
(61.3833°N, 23.0667°E)
Time: 03:30:19
(UTC+00:00)

deb Kosmos-1763 - Pass Details

Date: 29 November 2020
Orbit: 456 x 469 km, 74.0° (Epoch: 19 January)

Event Time Altitude Azimuth Distance (km) Brightness Sun altitude
Exits shadow 03:46:24 24° 12° (NNE) 1,025 5.7 -22.3°
Drops below altitude 10° 03:50:22 10° 96° (E) 1,629 7.9 -21.9°
Enters shadow 04:46:37 -68° 317° (NW) 12,334 11.1 -15.3°
Maximum altitude 05:23:14 72° 240° (WSW) 497 4.0 -11.2°
